Total_Precipitation_Accumulation
3.71 3.66 3.62 3.58 3.53 3.48 3.69 3.82 3.69 3.99 4.15 3.71 3.28 3.12 3.13 3.25 3.19 3.21 2.99 2.79 2.75 3.02 3.56 3.92 3.88 3.71 3.54 3.40 3.42 3.40 3.25 2.93 2.69 2.45 2.33 2.41 2.40 2.34 2.29 2.25 2.18 2.10 2.02
3.86 3.96 3.80 3.64 3.40 3.29 3.38 3.55 3.68 4.12 4.10 3.88 3.49 3.24 3.07 3.04 2.88 2.84 2.95 3.10 2.93 2.85 3.07 3.56 4.00 4.06 4.00 3.79 3.57 3.51 3.46 3.38 3.11 2.59 2.34 2.41 2.48 2.46 2.42 2.37 2.21 2.05 1.95
3.66 3.63 3.39 3.24 3.21 3.31 3.51 3.50 3.71 3.88 3.58 3.62 3.46 3.22 2.93 2.68 2.54 2.56 2.76 2.99 2.88 2.85 3.09 3.35 3.67 3.95 4.22 4.38 4.25 4.07 3.74 3.45 3.25 2.92 2.59 2.41 2.37 2.34 2.27 2.25 2.22 2.08 1.91
3.13 3.41 3.18 3.05 3.34 3.37 3.51 3.80 3.98 3.87 3.89 3.92 3.59 3.16 2.87 2.74 2.39 2.33 2.38 2.56 2.79 2.54 2.92 3.24 3.37 3.58 4.08 4.69 4.94 4.86 4.46 4.04 3.72 3.44 3.12 2.80 2.63 2.42 2.20 2.04 2.05 1.98 1.81
2.96 3.30 3.34 3.43 3.47 3.60 3.67 3.46 3.92 3.98 3.95 3.99 3.46 3.20 2.84 2.57 2.41 2.24 2.15 2.15 2.41 2.67 2.77 2.87 3.07 3.29 3.83 4.75 5.23 5.32 5.18 4.71 4.07 3.87 3.72 3.46 3.27 2.92 2.54 2.28 2.12 1.94 1.80
3.03 3.46 3.34 3.34 3.40 3.65 3.77 3.70 3.87 3.92 3.67 3.68 3.28 3.22 2.81 2.31 2.21 2.16 1.98 2.02 2.18 2.28 2.65 3.02 3.33 3.05 3.34 4.00 4.55 5.16 5.52 5.22 4.53 4.12 4.18 4.09 3.95 3.60 3.02 2.62 2.41 2.17 2.00
3.08 3.56 3.33 3.61 3.54 3.61 3.66 3.69 3.85 3.76 3.47 3.65 3.78 3.37 2.73 2.26 2.24 2.02 1.98 2.05 2.10 2.16 2.62 3.19 3.45 3.30 2.99 3.03 3.46 4.06 4.91 5.23 4.92 4.47 4.31 4.31 4.37 4.16 3.55 3.05 2.80 2.51 2.30
3.28 3.33 3.59 3.55 3.64 3.81 3.77 3.74 3.87 3.64 3.28 3.56 3.97 4.07 3.33 2.89 2.36 1.79 1.93 2.09 2.34 2.46 2.59 2.82 3.00 3.24 3.25 3.40 3.14 3.11 3.93 4.83 5.21 5.01 4.64 4.28 4.22 4.16 3.88 3.59 3.20 2.92 2.74
3.52 3.54 3.53 3.48 3.54 3.35 3.46 3.55 3.56 3.58 3.51 3.42 3.74 4.16 3.73 3.24 2.76 2.08 1.94 2.02 2.33 2.63 2.62 2.68 2.73 3.05 3.25 3.72 3.84 3.46 3.29 3.81 4.69 5.43 5.34 4.67 4.14 3.96 3.92 3.82 3.68 3.39 3.12
3.32 3.16 3.10 3.29 3.34 3.12 3.22 2.88 3.07 3.27 3.28 3.13 3.43 3.52 3.53 3.53 3.43 2.72 2.24 2.05 2.17 2.39 2.55 2.47 2.57 2.87 3.21 3.63 3.99 3.75 3.17 3.00 3.49 4.56 5.19 5.08 4.62 4.19 3.91 3.93 4.18 4.16 3.76
3.05 2.72 2.77 3.02 3.00 2.93 2.86 2.75 2.97 2.83 2.78 2.86 3.11 3.30 3.37 3.48 3.35 3.14 2.67 2.62 2.57 2.40 2.36 2.38 2.60 2.80 3.06 3.42 3.89 3.66 3.37 3.10 2.93 3.18 3.85 4.41 4.62 4.50 4.32 4.55 5.04 5.30 5.08
2.78 2.48 2.39 2.62 2.76 2.83 2.81 2.78 2.88 2.79 2.85 2.95 2.94 2.98 3.24 3.27 3.26 3.38 2.87 2.69 2.75 2.47 2.37 2.48 2.54 2.79 2.91 3.14 3.24 3.36 3.27 3.06 2.87 2.82 3.04 3.42 3.76 4.08 4.23 4.56 5.13 5.62 5.87
2.42 2.37 2.40 2.56 2.62 2.70 2.58 2.66 2.75 2.75 2.92 2.98 2.89 2.82 2.93 2.97 3.09 3.38 3.31 2.92 2.79 2.59 2.66 2.57 2.44 2.54 2.52 2.69 2.88 2.97 2.71 2.54 2.40 2.39 2.47 2.64 2.74 3.08 3.42 3.91 4.57 5.12 5.46
2.38 2.50 2.51 2.39 2.36 2.46 2.34 2.65 2.58 2.61 2.86 2.94 2.66 2.93 2.96 2.94 3.23 3.48 3.59 3.67 3.31 2.96 2.88 2.82 2.65 2.44 2.49 2.53 2.61 2.57 2.32 2.24 1.94 1.92 2.01 2.14 2.26 2.42 2.70 3.05 3.64 4.07 4.19
2.44 2.59 2.58 2.51 2.40 2.47 2.59 2.87 2.78 2.70 2.93 2.91 2.92 3.14 3.10 3.02 3.15 3.30 3.52 3.80 3.90 3.46 3.18 3.15 2.97 2.60 2.49 2.52 2.56 2.28 2.32 2.26 1.96 1.83 1.74 1.72 1.83 1.96 2.04 2.27 2.63 2.88 3.04
2.32 2.57 2.73 2.63 2.48 2.50 2.67 2.86 2.82 2.94 3.13 3.17 3.26 3.35 3.31 3.12 3.21 3.26 3.32 3.57 3.92 3.83 3.38 2.97 2.78 2.48 2.36 2.20 2.46 2.21 2.24 2.26 2.04 1.87 1.70 1.61 1.65 1.70 1.71 1.76 1.99 2.23 2.42
2.40 2.48 2.59 2.58 2.49 2.52 2.66 2.73 2.68 3.00 3.15 3.17 3.15 3.17 3.14 3.30 3.30 3.18 3.28 3.47 3.76 3.85 3.41 2.82 2.68 2.65 2.67 2.55 2.55 2.37 2.23 2.19 1.98 1.88 1.70 1.63 1.63 1.65 1.68 1.68 1.74 1.88 1.96
2.41 2.36 2.42 2.42 2.30 2.34 2.56 2.58 2.63 2.98 3.19 3.00 3.00 3.02 2.77 2.88 2.99 2.84 2.98 3.05 3.21 3.48 3.37 3.00 2.91 2.88 2.86 2.78 2.78 2.71 2.41 2.15 1.87 1.87 1.68 1.62 1.64 1.64 1.66 1.67 1.71 1.74 1.86
2.14 2.15 2.16 2.19 2.27 2.47 2.55 2.52 2.57 2.60 2.63 2.68 2.90 3.01 2.80 2.78 2.68 2.69 2.73 2.72 2.79 2.90 3.18 3.07 2.89 2.95 2.89 2.92 2.87 2.68 2.48 2.32 1.91 1.84 1.81 1.70 1.65 1.60 1.57 1.58 1.60 1.70 1.93
1.95 2.02 2.12 2.22 2.31 2.41 2.43 2.51 2.57 2.46 2.42 2.46 2.62 2.73 2.71 2.64 2.54 2.65 2.58 2.60 2.68 2.86 3.04 3.09 2.96 3.05 3.05 3.03 3.12 2.88 2.89 2.69 2.39 2.06 2.00 1.87 1.84 1.80 1.71 1.59 1.54 1.59 1.82
2.02 2.11 2.19 2.22 2.24 2.18 2.09 2.20 2.27 2.30 2.43 2.37 2.29 2.26 2.25 2.28 2.27 2.32 2.17 2.38 2.66 2.81 2.89 2.92 2.92 3.10 3.25 3.33 3.16 3.10 3.14 3.05 2.79 2.42 2.26 2.04 1.98 1.88 1.90 1.85 1.72 1.61 1.63
2.19 2.20 2.14 2.19 2.15 1.83 2.05 2.12 2.12 2.22 2.36 2.37 2.22 2.06 1.94 1.92 1.86 1.89 1.87 1.99 2.29 2.51 2.65 2.81 2.79 2.90 3.12 3.33 3.49 3.48 3.34 3.24 3.08 2.85 2.74 2.60 2.43 2.35 2.23 2.05 1.98 1.83 1.70
2.33 2.25 2.16 2.14 2.15 2.23 2.31 2.10 1.94 1.90 2.01 2.07 2.03 1.98 1.71 1.62 1.83 1.79 1.85 1.83 1.85 2.03 2.21 2.47 2.55 2.50 2.72 3.04 3.38 3.29 3.46 3.52 3.38 3.33 3.34 3.12 2.81 2.58 2.30 2.13 2.03 1.76 1.62
2.47 2.46 2.39 2.30 2.28 2.25 2.23 2.01 1.98 1.86 1.86 1.87 1.90 1.93 1.90 1.82 1.88 2.02 1.99 1.90 1.78 1.76 1.90 1.98 2.07 2.20 2.47 2.85 3.17 3.15 3.24 3.34 3.33 3.28 3.33 3.22 2.88 2.68 2.39 2.23 2.22 1.92 1.63
2.53 2.47 2.41 2.44 2.39 2.39 2.44 2.22 2.23 2.04 2.03 2.03 2.08 2.09 2.06 1.95 2.11 2.06 1.95 1.92 1.87 1.86 1.96 2.08 2.01 2.08 2.32 2.50 2.73 2.84 2.82 2.94 2.81 2.71 2.89 3.07 2.98 2.87 2.69 2.46 2.30 2.13 1.72
2.56 2.58 2.58 2.54 2.53 2.54 2.77 2.57 2.41 2.22 2.22 2.21 2.33 2.33 2.38 2.20 2.18 2.11 1.95 1.97 1.96 1.99 2.11 2.05 2.01 1.96 1.98 2.24 2.55 2.57 2.77 3.01 2.88 2.62 2.36 2.53 2.68 2.93 3.01 2.71 2.46 2.31 2.16